Aurora, IL

10:21 AM CDT on August 16, 2017 (GMT -0500)
Aurora Municipal

Weather History for KARR - November, 2013

Change the Weather History Date:

Friday, November 8, 2013

  Actual Average Record
Temperature  
Mean Temperature 36 °F 42 °F  
Max Temperature 49 °F 52 °F 74 °F (1999)
Min Temperature 23 °F 32 °F 17 °F (2003)
Degree Days  
Heating Degree Days 29 23  
Month to date heating degree days 183 172  
Since 1 July heating degree days 756 779  
Cooling Degree Days 0 0  
Month to date cooling degree days 0 0  
Year to date cooling degree days 745 655  
Moisture  
Dew Point 29 °F    
Average Humidity 69    
Maximum Humidity 92    
Minimum Humidity 46    
Precipitation  
Precipitation 0.00 in 0.11 in 1.33 in (2011)
Month to date precipitation 0.88 0.97  
Year to date precipitation 31.41 32.73  
Sea Level Pressure  
Sea Level Pressure 30.21 in    
Wind  
Wind Speed 9 mph (South)    
Max Wind Speed 18 mph    
Max Gust Speed 25 mph    
Visibility 9 miles    
Events      
T = Trace of Precipitation, MM = Missing Value Source: NWS Daily Summary

Daily Weather History Graph

Daily Weather History Graph

Search for Another Location

Airport or City:

Trip Planner

Search our weather history database for the weather conditions in past years. The results will help you decide how hot, cold, wet, or windy it might be!

Date:

Astronomy

Nov. 08, 2013 Rise Set
Actual Time 6:34 AM CST 4:39 PM CST
Civil Twilight 6:05 AM CST 5:09 PM CST
Nautical Twilight 5:32 AM CST 5:42 PM CST
Astronomical Twilight 4:59 AM CST 6:15 PM CST
Moon 11:30 AM CST (11/8) 10:00 PM CST (11/8)
Length of Visible Light 11h 03m
Length of Day
10h 04m
Waxing Crescent, 33% of the Moon is Illuminated
Nov 8
Waxing Crescent
Nov 9
First Quarter
Nov 17
Full
Nov 25
Last Quarter
Dec 2
New

Hourly Weather History & Observations

Time (CST) Temp. Windchill Dew Point Humidity Pressure Visibility Wind Dir Wind Speed Gust Speed Precip Events Conditions
12:52 AM 28.9 °F 23.9 °F 26.1 °F 89% 30.27 in 9.0 mi WNW 4.6 mph - N/A   Clear
1:52 AM 26.1 °F 19.4 °F 24.1 °F 92% 30.29 in 9.0 mi West 5.8 mph - N/A   Clear
2:52 AM 27.0 °F 23.0 °F 23.0 °F 85% 30.29 in 8.0 mi NW 3.5 mph - N/A   Clear
3:52 AM 24.1 °F 18.2 °F 21.9 °F 91% 30.30 in 8.0 mi West 4.6 mph - N/A   Clear
4:52 AM 25.0 °F - 21.0 °F 85% 30.31 in 8.0 mi Calm Calm - N/A   Clear
5:52 AM 25.0 °F - 21.9 °F 88% 30.33 in 7.0 mi Calm Calm - N/A   Clear
6:52 AM 24.1 °F 19.7 °F 21.0 °F 88% 30.34 in 5.0 mi SSW 3.5 mph - N/A   Clear
7:52 AM 28.0 °F - 27.0 °F 96% 30.36 in 5.0 mi Calm Calm - N/A   Clear
8:52 AM 35.1 °F - 30.0 °F 82% 30.35 in 7.0 mi Calm Calm - N/A   Clear
9:52 AM 37.9 °F 33.5 °F 30.9 °F 76% 30.33 in 8.0 mi SSE 5.8 mph - N/A   Mostly Cloudy
10:52 AM 42.1 °F 36.6 °F 30.0 °F 62% 30.32 in 9.0 mi SSE 9.2 mph - N/A   Clear
11:52 AM 44.1 °F 38.1 °F 32.0 °F 63% 30.28 in 9.0 mi South 11.5 mph - N/A   Clear
12:52 PM 46.0 °F 41.4 °F 30.9 °F 56% 30.24 in 10.0 mi South 9.2 mph - N/A   Clear
1:52 PM 48.0 °F - 30.9 °F 52% 30.21 in 10.0 mi South 11.5 mph - N/A   Clear
2:52 PM 48.9 °F - 30.9 °F 50% 30.19 in 10.0 mi South 12.7 mph - N/A   Clear
3:52 PM 48.0 °F - 28.9 °F 48% 30.16 in 10.0 mi SSE 12.7 mph - N/A   Partly Cloudy
4:52 PM 44.1 °F 37.7 °F 30.9 °F 60% 30.14 in 10.0 mi SSE 12.7 mph - N/A   Clear
5:52 PM 44.1 °F 37.4 °F 32.0 °F 63% 30.11 in 10.0 mi SSE 13.8 mph - N/A   Clear
6:52 PM 44.1 °F 37.4 °F 32.0 °F 63% 30.08 in 10.0 mi SSE 13.8 mph - N/A   Clear
7:52 PM 45.0 °F 37.9 °F 30.9 °F 58% 30.08 in 10.0 mi SSE 16.1 mph 23.0 mph N/A   Mostly Cloudy
8:52 PM 44.1 °F 37.4 °F 32.0 °F 63% 30.07 in 10.0 mi South 13.8 mph - N/A   Clear
9:52 PM 44.1 °F 37.7 °F 33.1 °F 65% 30.04 in 10.0 mi South 12.7 mph - N/A   Mostly Cloudy
10:52 PM 45.0 °F 37.9 °F 32.0 °F 60% 29.99 in 10.0 mi South 16.1 mph 23.0 mph N/A   Mostly Cloudy
11:52 PM 46.0 °F 39.9 °F 33.1 °F 61% 29.95 in 10.0 mi South 13.8 mph 24.2 mph N/A   Clear